STARLINK-35113

Last updated on Mon Oct 20 2025 00:02:06 GMT+0000 (Coordinated Universal Time)

1 65697U 25212X 25292.29275893 .00111701 00000+0 19846-2 0 9990 2 65697 53.1581 282.5436 0001280 80.4421 279.6732 15.49355722 5596
UTC large
Height (km)
Speed (km/s)
/
Latitude / Longitude
Inclination (degrees)
Orbital Period (minutes)
Azimuth
Elevation
Range (km)
Doppler Factor

Next 0 passes for location: London (51.5072 / 0.1276)

Sorry there are no passes over London.